Lapse_Rate
6.1 5.7 5.5 5.8 6.2 7.0 7.1 6.7 6.6 6.4 6.8 6.9 7.0 7.2 7.0 6.6 7.0 7.0 6.9 6.9 7.1 7.2 7.2 7.2 7.2 7.3 7.3 7.3 7.3 7.3 7.3 7.2 7.1 7.2 7.1 7.0 6.9 6.8 6.7 6.7 6.6 6.6 6.6 6.5
6.1 5.8 6.1 6.3 6.2 6.6 6.8 6.7 6.8 6.6 7.1 6.9 6.7 7.1 6.9 6.7 6.9 7.0 6.8 6.8 6.8 6.9 7.1 7.2 7.4 7.4 7.3 7.4 7.5 7.3 7.3 7.3 7.4 7.3 7.2 7.1 7.1 7.1 7.0 6.9 6.8 6.6 6.5 6.5
6.2 6.3 6.2 6.3 6.5 6.6 6.7 6.9 6.6 6.6 6.8 6.7 6.6 6.8 6.9 6.7 6.9 7.0 7.0 6.9 6.9 6.9 7.0 7.1 7.2 7.2 7.2 7.4 7.4 7.4 7.3 7.4 7.3 7.4 7.2 7.3 7.2 7.2 7.0 6.9 6.8 6.6 6.4 6.4
6.5 6.5 6.7 6.7 6.6 6.8 6.7 6.8 6.7 6.6 6.8 6.9 6.5 7.4 7.2 7.0 7.1 7.0 7.1 7.1 7.0 7.1 7.1 7.2 7.2 7.2 7.3 7.3 7.3 7.3 7.4 7.4 7.4 7.3 7.3 7.3 7.1 7.1 7.0 6.9 6.8 6.7 6.5 6.4
6.4 6.7 6.8 6.6 6.7 6.8 6.6 6.7 6.8 6.7 6.5 6.4 6.3 6.4 7.2 6.9 6.9 7.0 7.1 7.1 7.1 7.0 7.1 7.2 7.3 7.3 7.3 7.3 7.2 7.3 7.3 7.4 7.3 7.1 7.1 7.2 7.1 7.0 7.0 6.9 6.8 6.8 6.7 6.6
6.7 7.0 6.9 6.7 6.7 6.8 6.6 6.8 6.6 6.4 6.1 6.4 6.5 6.5 7.3 6.7 6.9 7.1 7.0 7.0 6.9 6.9 6.9 6.9 7.0 7.1 7.1 7.1 7.1 7.2 7.3 7.2 7.2 7.1 7.0 7.0 7.0 7.0 6.9 6.8 6.8 6.7 6.6 6.6
6.5 6.9 6.9 6.6 6.7 6.5 6.4 6.5 6.4 6.5 6.3 6.3 6.2 6.1 6.7 6.3 6.6 6.9 6.8 6.8 6.9 6.9 6.8 6.6 6.6 6.7 6.7 6.8 6.8 6.8 6.9 6.9 6.9 6.9 6.9 6.9 6.9 6.9 6.8 6.7 6.6 6.6 6.5 6.5
6.5 6.3 6.7 6.8 6.8 6.7 6.5 6.7 6.7 6.1 6.2 6.5 5.8 5.5 6.0 6.8 6.7 6.7 6.9 6.9 6.7 6.5 6.5 6.5 6.5 6.5 6.5 6.6 6.6 6.6 6.7 6.7 6.7 6.7 6.7 6.7 6.6 6.5 6.4 6.4 6.3 6.3 6.3 6.4
6.8 7.0 6.8 6.8 6.8 6.9 6.3 6.6 6.9 6.7 5.9 5.9 6.2 6.1 6.2 6.9 7.1 6.9 7.0 6.7 6.5 6.4 6.3 6.3 6.3 6.4 6.4 6.4 6.4 6.5 6.5 6.5 6.5 6.4 6.4 6.4 6.3 6.3 6.3 6.2 6.2 6.2 6.2 6.2
7.3 7.2 6.8 6.9 6.9 6.9 6.7 6.9 6.5 6.7 5.9 6.2 6.5 6.3 6.8 7.1 7.3 7.3 6.9 6.8 6.5 6.4 6.3 6.4 6.4 6.3 6.2 6.2 6.3 6.4 6.4 6.4 6.3 6.2 6.1 6.1 6.1 6.0 6.1 6.1 6.0 6.1 6.2 6.2
7.4 7.6 6.4 6.4 6.6 6.9 6.6 6.7 6.9 7.1 7.3 6.9 6.9 6.9 7.1 7.6 7.6 7.6 7.4 6.9 6.7 6.5 6.4 6.3 6.3 6.2 6.3 6.4 6.4 6.4 6.2 6.1 6.0 6.0 6.0 6.0 6.0 6.1 6.1 6.2 6.3 6.3 6.3 6.4
7.3 7.4 6.8 6.7 6.5 6.9 6.8 7.0 7.2 7.3 6.4 6.8 6.9 7.1 7.1 7.4 7.3 7.2 7.3 7.2 6.7 6.5 6.4 6.2 6.2 6.2 6.3 6.3 6.2 6.1 5.9 5.9 5.9 5.9 5.9 5.9 6.1 6.2 6.2 6.2 6.2 6.2 6.3 6.2
7.0 7.0 6.9 6.2 6.4 6.5 6.6 6.9 6.9 7.2 7.3 6.8 6.9 7.2 7.4 7.2 7.3 7.2 7.1 7.2 7.0 6.6 6.4 6.3 6.2 6.2 6.1 6.0 5.9 5.9 5.9 5.8 5.8 5.8 5.8 5.8 5.8 5.9 6.1 6.3 6.3 6.4 6.5 6.6
7.3 7.2 7.3 7.2 7.0 7.1 6.3 6.9 7.0 6.8 6.9 6.8 6.8 7.3 7.2 7.1 7.2 7.3 7.3 7.2 7.0 6.7 6.4 6.3 6.1 6.0 5.9 5.9 5.9 5.9 5.8 5.8 5.9 5.9 6.0 6.2 6.2 6.2 6.3 6.3 6.4 6.4 6.4 6.5
7.1 7.1 7.0 7.0 7.5 7.6 7.2 7.3 7.0 6.9 7.4 7.0 7.2 7.0 7.2 7.2 7.3 7.6 7.8 7.4 7.0 6.6 6.4 6.3 6.1 6.1 6.0 6.1 6.0 5.9 6.0 6.1 6.2 6.2 6.1 6.1 6.1 6.4 6.5 6.5 6.5 6.5 6.5 6.4
6.8 6.6 6.9 6.9 7.4 7.4 7.1 7.4 7.1 7.1 7.1 7.0 6.9 6.8 6.7 6.6 6.9 6.9 7.1 7.3 7.4 7.2 6.5 6.3 6.3 6.1 5.9 5.9 5.8 6.0 6.2 6.3 6.3 6.2 6.1 6.2 6.3 6.4 6.5 6.5 6.4 6.2 6.1 6.0
6.9 6.8 6.6 6.4 6.7 6.7 6.6 6.4 6.3 6.6 7.0 6.8 6.5 6.9 6.8 6.7 6.8 7.0 7.2 7.3 7.4 7.4 6.9 6.3 6.1 5.9 5.9 5.9 6.0 6.1 6.2 6.2 6.1 6.0 6.0 6.1 6.2 6.2 6.2 6.1 6.0 6.1 6.1 6.1
6.4 6.6 6.7 6.9 6.3 6.2 6.1 6.4 6.5 6.5 6.7 7.0 6.8 6.8 6.6 6.6 6.8 7.0 7.0 6.9 7.0 6.9 6.4 6.1 5.9 6.0 6.1 6.1 6.1 6.0 6.0 6.0 6.0 5.9 5.9 6.0 6.2 6.1 5.9 5.8 5.8 5.7 5.7 5.7
6.2 5.9 5.9 6.0 5.3 5.9 5.8 5.7 6.5 6.7 6.9 7.2 7.2 7.1 7.0 6.8 6.4 6.3 6.4 6.7 6.9 6.7 6.3 6.1 6.1 6.1 6.2 6.1 5.9 5.8 5.9 5.9 5.9 5.9 5.9 5.8 5.7 5.7 5.7 5.7 5.6 5.5 5.6 5.5
5.9 5.7 5.6 5.5 5.9 5.8 5.7 6.4 6.4 6.4 5.7 6.9 6.9 7.1 6.9 7.0 6.6 6.4 7.0 7.2 7.0 6.5 6.1 6.2 6.2 6.1 5.9 5.8 5.8 5.6 5.7 5.8 5.8 5.7 5.7 5.7 5.6 5.5 5.5 5.5 5.4 5.3 5.2 5.2
5.4 5.7 5.6 5.5 5.7 5.8 5.7 6.2 6.3 5.9 6.0 6.5 7.2 7.2 7.2 6.9 7.0 6.9 6.9 6.9 6.7 6.3 6.4 6.3 6.1 5.8 5.8 5.7 5.6 5.7 5.7 5.6 5.4 5.4 5.4 5.4 5.4 5.4 5.5 5.4 5.2 5.1 5.1 5.2
5.0 5.1 5.3 5.4 5.5 5.8 5.7 5.8 6.0 6.4 6.8 6.5 6.5 6.5 6.5 6.3 6.3 6.4 6.6 6.6 6.6 6.5 6.2 6.0 5.9 5.9 5.7 5.6 5.5 5.4 5.4 5.3 5.4 5.4 5.4 5.4 5.4 5.4 5.3 5.3 5.2 5.4 5.5 5.5
5.2 5.2 5.3 5.5 5.6 5.8 6.0 6.4 6.4 6.5 6.6 6.4 6.4 6.5 6.5 6.6 6.3 6.2 6.5 6.4 6.1 6.1 6.1 6.0 5.8 5.6 5.5 5.4 5.4 5.4 5.4 5.5 5.6 5.4 5.3 5.3 5.4 5.5 5.5 5.4 5.5 5.5 5.5 5.4
5.4 5.8 5.7 5.6 5.8 6.0 6.2 6.1 6.1 6.5 6.4 6.3 6.5 6.7 6.7 6.7 6.7 6.5 6.6 6.4 6.3 6.3 6.2 5.8 5.6 5.4 5.4 5.5 5.5 5.5 5.5 5.5 5.5 5.5 5.6 5.6 5.7 5.6 5.6 5.6 5.7 5.7 5.5 5.3
5.9 6.2 6.3 6.3 6.0 6.2 6.3 6.5 6.6 6.6 6.6 6.6 6.6 6.7 6.7 6.7 6.4 6.3 6.3 6.2 6.0 5.9 5.8 5.7 5.7 5.8 5.7 5.5 5.5 5.6 5.8 5.9 5.8 5.8 5.7 5.6 5.7 5.7 5.8 5.9 5.7 5.5 5.1 4.7
5.8 6.2 6.4 6.6 6.7 6.6 6.6 6.5 6.4 6.4 6.3 6.2 6.2 6.4 6.5 6.7 6.5 6.3 6.1 5.9 5.8 5.8 5.9 5.9 5.8 5.7 5.7 5.9 6.1 6.3 6.2 5.9 5.7 5.7 5.7 5.7 5.9 5.9 5.9 5.8 5.7 5.2 4.9 4.5
Wind_Speed
10 10 16 18 15 13 16 14 10 8 3 6 12 12 12 9 6 7 8 7 5 4 2 2 4 5 8 10 13 15 15 14 10 6 7 6 6 6 5 11 13 13 13 14
7 16 14 10 7 7 8 13 11 4 4 4 4 11 11 10 7 4 4 6 5 3 3 1 0 2 5 8 10 12 14 13 11 7 6 4 4 4 7 10 12 13 13 13
14 10 11 7 8 10 10 14 11 4 6 1 2 8 11 5 5 4 3 4 3 3 3 3 3 3 1 1 5 9 11 12 12 11 6 4 1 1 4 4 4 10 13 13
9 5 11 12 15 13 9 1 10 11 9 5 3 4 7 9 7 4 4 6 5 5 5 5 5 5 5 3 1 5 8 9 9 11 10 9 5 6 5 4 5 6 14 14
7 9 14 13 14 10 5 7 7 6 5 2 7 5 5 7 8 8 7 6 6 6 6 7 7 7 6 6 6 6 5 5 6 7 8 6 4 3 3 1 3 4 7 13
4 3 6 6 6 5 15 12 10 5 2 6 11 9 8 8 12 10 8 9 8 9 8 8 7 8 8 7 8 8 9 8 6 5 6 5 5 4 2 2 2 1 3 2
5 5 2 6 9 8 9 15 4 5 5 7 4 4 12 4 4 11 13 12 11 10 9 8 9 9 9 9 9 9 11 12 10 10 8 7 5 5 4 3 3 3 2 2
12 8 13 10 7 9 16 15 6 7 5 4 2 8 4 8 3 11 13 13 11 10 8 8 8 9 9 9 10 11 10 12 11 11 11 8 7 4 4 6 4 5 5 6
14 8 3 5 1 12 7 9 3 6 1 2 6 6 4 7 9 13 14 13 12 11 9 8 8 9 9 9 10 10 11 11 11 11 10 10 9 9 7 8 7 6 7 5
5 5 3 2 2 0 6 11 4 3 5 5 6 6 7 13 17 16 17 16 14 12 10 9 8 8 8 8 9 10 11 12 11 10 10 9 9 10 9 8 9 8 7 10
7 2 3 5 10 14 5 6 6 4 3 4 4 6 2 19 21 21 18 17 16 14 12 10 8 8 8 8 9 9 9 10 10 9 9 9 8 8 8 7 7 7 7 9
2 4 5 8 4 3 6 11 12 6 5 4 2 4 4 5 17 19 18 15 14 13 12 11 10 9 8 8 8 8 9 9 8 7 8 9 8 8 8 8 7 8 7 8
9 3 4 2 2 2 7 12 16 16 3 6 5 7 3 5 15 16 17 15 14 14 13 12 11 10 9 8 8 8 8 8 6 6 8 8 7 7 7 7 7 7 7 7
12 4 13 14 17 7 8 15 14 17 8 12 11 12 4 12 17 17 17 16 17 16 15 13 12 10 9 8 8 8 8 6 5 6 7 7 6 7 7 7 8 8 8 8
8 8 12 20 10 6 12 15 17 19 25 16 23 17 12 18 20 22 20 18 17 15 15 14 12 10 10 9 8 7 7 6 6 7 8 8 7 8 7 7 7 6 6 6
4 3 9 2 6 3 2 9 19 22 25 22 23 16 6 15 16 16 18 18 18 17 16 13 12 10 9 8 8 6 6 6 6 8 6 5 5 5 5 5 5 5 6 6
8 6 3 4 5 4 5 21 17 20 25 21 24 26 7 14 19 21 20 20 18 17 16 13 12 10 8 8 7 7 6 5 5 3 2 3 4 4 5 5 6 6 7 7
4 5 2 4 4 8 7 2 22 22 16 22 22 14 13 17 20 20 19 19 17 17 15 13 10 11 9 8 7 7 5 4 4 3 2 3 4 4 6 6 6 6 6 8
5 7 3 6 9 10 14 4 7 11 20 22 22 16 9 11 9 11 13 13 14 14 13 11 10 11 10 8 7 6 4 4 3 3 3 3 4 4 5 5 6 6 6 7
2 4 8 5 7 12 3 8 4 6 17 13 16 13 10 14 12 10 14 13 15 15 13 12 10 9 9 7 5 5 5 4 4 3 3 3 4 3 5 6 7 6 7 8
5 4 15 8 7 7 4 8 5 9 6 3 12 15 18 16 8 9 16 14 16 14 14 13 11 8 7 6 5 5 4 4 2 2 2 3 3 5 5 6 7 7 8 10
8 7 5 4 8 15 9 4 8 1 2 0 1 6 10 6 10 14 17 17 16 17 14 11 10 8 6 5 4 5 5 3 3 3 3 4 4 5 5 7 7 7 8 9
5 3 5 6 3 2 13 3 3 2 2 3 4 3 10 11 12 14 15 14 12 13 11 7 9 9 6 4 4 4 3 3 3 3 3 4 5 6 5 7 8 7 7 7
2 1 2 2 3 2 3 2 3 1 2 2 3 9 12 14 13 12 12 11 9 9 9 5 8 7 5 4 4 4 3 3 2 3 4 5 5 6 6 5 6 6 6 7
2 8 4 5 1 2 4 7 3 2 3 4 6 6 13 15 12 13 11 10 9 8 5 6 7 6 5 4 4 3 3 3 3 3 4 5 5 6 7 7 6 7 7 9
5 5 6 5 6 3 3 7 7 7 7 7 8 7 5 10 13 12 10 8 9 9 6 6 5 6 5 3 3 3 3 3 2 5 5 5 5 6 6 7 9 13 17 19
Wind_Direction
189 188 205 204 215 229 202 208 197 187 111 208 229 248 249 218 226 240 225 220 224 212 103 258 245 244 239 233 225 222 215 213 206 188 197 201 205 203 210 217 218 216 216 243
173 207 200 214 176 208 197 198 187 112 127 222 193 255 242 235 229 244 259 247 240 231 172 103 146 251 240 236 228 231 225 215 208 179 197 201 190 205 215 217 221 217 217 235
200 190 130 140 175 164 195 206 173 217 142 169 273 260 231 176 190 185 201 229 213 212 171 126 108 98 27 242 234 229 229 223 213 181 182 183 79 112 194 212 212 216 220 228
236 139 168 184 189 194 191 96 142 134 173 219 201 263 191 181 185 190 175 189 166 147 132 116 102 77 71 48 93 215 216 213 213 207 205 172 206 226 236 208 202 200 213 228
173 166 175 189 185 197 161 155 135 141 191 264 185 252 228 166 197 182 166 158 138 123 119 106 94 84 73 64 75 103 151 176 180 210 214 196 198 236 266 25 177 207 209 221
102 344 188 183 101 200 140 121 96 107 180 245 221 224 223 180 212 167 165 146 150 132 119 107 90 87 79 75 73 80 94 105 130 159 190 206 199 221 226 341 310 344 356 4
133 160 123 161 103 141 171 162 150 186 201 235 35 214 249 135 163 181 168 156 146 138 126 114 104 93 83 80 79 78 83 84 90 91 83 64 62 56 49 35 25 353 351 346
182 199 182 178 211 178 193 191 168 180 197 175 111 224 227 114 180 155 152 150 144 135 130 119 106 97 88 81 79 82 81 85 83 85 84 82 84 76 64 46 28 30 13 8
194 184 73 177 147 152 174 206 74 106 67 181 193 238 186 162 174 161 157 159 158 145 138 128 114 102 98 86 77 81 84 79 75 77 79 72 68 64 61 52 41 26 25 8
210 123 233 109 151 281 213 148 166 221 166 219 196 244 233 189 183 177 174 175 164 151 144 140 126 113 100 94 93 85 81 78 74 74 71 68 63 59 53 47 41 32 23 15
169 121 132 162 210 178 156 191 216 228 220 219 204 241 216 190 185 182 177 176 168 164 158 149 135 123 115 109 98 92 84 80 73 69 72 72 65 66 64 54 43 27 22 14
126 100 154 190 65 26 265 223 196 202 207 261 34 258 342 196 182 180 174 167 169 165 158 151 148 142 133 120 109 98 89 84 78 78 77 70 63 58 55 46 31 21 15 9
174 153 115 104 236 157 215 212 220 226 62 193 197 246 340 212 169 177 172 168 164 165 163 161 156 153 142 130 114 98 86 81 78 78 76 68 57 52 48 36 21 14 6 5
162 150 201 220 224 149 203 211 210 213 213 218 223 230 161 174 173 174 176 175 173 176 171 168 159 154 140 128 119 112 102 92 87 79 76 67 49 37 31 23 11 5 358 353
183 203 205 232 240 207 206 204 205 212 221 215 233 230 214 191 185 189 182 174 172 176 177 171 162 154 147 135 125 114 98 86 69 66 55 42 24 19 12 6 356 349 343 339
191 196 218 222 238 240 243 220 204 213 226 233 247 247 244 180 195 181 178 177 180 179 177 170 161 151 144 140 122 111 97 76 55 53 43 24 8 356 355 341 330 325 321 322
167 148 126 199 134 125 274 225 216 218 225 222 235 237 151 182 191 187 184 188 183 178 173 167 164 155 142 135 131 122 109 93 72 81 70 20 354 348 346 332 331 326 327 324
128 114 106 127 142 216 245 10 220 218 226 226 243 243 186 186 196 195 195 184 177 172 168 160 156 145 137 131 124 118 95 108 129 100 68 21 359 349 339 335 328 328 331 329
172 167 161 196 210 285 274 191 160 183 239 228 231 231 185 185 174 204 192 182 173 162 155 149 144 142 139 140 124 118 149 142 117 85 45 13 355 334 328 317 317 314 312 308
73 246 217 162 212 219 337 159 163 123 266 215 214 212 160 144 190 193 174 163 140 140 138 136 130 130 126 120 140 146 139 133 87 41 4 346 334 303 305 303 304 304 292 291
163 159 204 187 219 275 145 150 174 171 277 298 201 200 172 188 210 152 145 143 142 137 133 130 131 129 132 129 143 124 121 93 81 19 347 326 322 311 300 303 300 298 298 299
175 160 174 162 202 251 139 101 186 96 47 61 214 160 184 133 120 140 144 138 136 132 131 127 129 127 121 127 137 121 95 88 58 9 333 320 321 322 311 303 296 293 293 295
203 198 171 209 208 71 185 41 129 90 173 206 173 165 142 135 140 137 133 127 126 127 119 119 130 127 121 103 78 101 95 61 24 348 322 319 318 304 294 300 299 299 295 292
221 201 210 134 178 200 247 45 322 273 282 160 138 136 136 135 135 121 110 112 114 117 123 127 129 128 120 98 93 86 88 64 32 329 325 317 305 307 297 299 299 295 293 293
131 151 170 267 176 320 267 216 174 147 89 110 119 139 144 134 138 133 130 126 127 126 122 125 128 127 124 107 97 82 65 45 347 318 307 306 301 307 305 288 287 285 277 278
182 170 192 233 157 166 201 202 157 164 177 169 145 124 114 144 137 134 133 133 136 139 137 125 114 122 130 132 116 97 69 54 4 312 307 316 305 297 302 300 301 285 284 287